Tracking 29892 objects as of 21-Nov-2024
HD Live streaming from Space Station
objects crossing your sky now

FENGYUN 1C DEB

Track FENGYUN 1C DEB now!
10-day predictions


NORAD ID: 30705
Int'l Code: 1999-025ARP
Perigee: 827.3 km
Apogee: 1,124.5 km
Inclination: 102.2 °
Period: 104.5 minutes
Semi major axis: 7346 km
RCS: 0.0153 m2 (small)
Launch date: May 10, 1999
Source: People's Republic of China (PRC)
Launch site: Taiyaun Space Center, China (TSC)

Note: This is SATELLITE DEBRIS
Your satellite tracking list
Your tracking list is empty




NASA's NSSDC Master Catalog

Two Line Element Set (TLE):
1 30705U 99025ARP 24325.19165602  .00003094  00000-0  26722-2 0  9993
2 30705 102.1905 312.8099 0202273 120.7892 304.1320 13.78619911886632
Source of the keplerian elements: AFSPC